Weather History for K1A6 - March, 2013

Change the Weather History Date:

Sunday, March 3, 2013

  Actual Average (KLOZ) Record (KLOZ)
Temperature  
Mean Temperature 27 °F 44 °F  
Max Temperature 32 °F 55 °F 77 °F (1974)
Min Temperature 22 °F 33 °F -12 °F (1980)
Degree Days  
Heating Degree Days 38 21  
Month to date heating degree days 65  
Since 1 July heating degree days 3341  
Cooling Degree Days 0 0  
Month to date cooling degree days 0  
Year to date cooling degree days 0  
Moisture  
Dew Point 18 °F    
Average Humidity 65    
Maximum Humidity 89    
Minimum Humidity 51    
Precipitation  
Precipitation 0.00 in 0.13 in 1.37 in (1997)
Month to date precipitation 0.41  
Year to date precipitation 7.66  
Sea Level Pressure  
Sea Level Pressure 30.06 in    
Wind  
Wind Speed 5 mph (NW)    
Max Wind Speed 10 mph    
Max Gust Speed -    
Visibility 10 miles    
Events Snow    
T = Trace of Precipitation, MM = Missing Value Source: NWS Daily Summary

Daily Weather History Graph

Daily Weather History Graph

Search for Another Location

Airport or City:

Trip Planner

Search our weather history database for the weather conditions in past years. The results will help you decide how hot, cold, wet, or windy it might be!

Date:

Astronomy

Mar. 03, 2013 Rise Set
Actual Time 6:02 AM CST 5:31 PM CST
Civil Twilight 5:36 AM CST 5:57 PM CST
Nautical Twilight 5:06 AM CST 6:27 PM CST
Astronomical Twilight 4:36 AM CST 6:57 PM CST
Moon No Moon Rise 9:27 AM CST (3/3)
Length of Visible Light 12h 20m
Length of Day
11h 29m
Waning Gibbous, 63% of the Moon is Illuminated
Mar 3
Waning Gibbous
Mar 4
Last Quarter
Mar 11
New
Mar 19
First Quarter
Mar 27
Full

Hourly Weather History & Observations

Time (CST) Temp. Windchill Dew Point Humidity Pressure Visibility Wind Dir Wind Speed Gust Speed Precip Events Conditions
12:15 AM 27.5 °F 19.3 °F 17.8 °F 67% 30.06 in 10.0 mi NW 8.1 mph - N/A Snow Light Snow
12:35 AM 27.1 °F 23.2 °F 19.0 °F 72% 30.06 in 7.0 mi NNW 3.5 mph - N/A Snow Light Snow
12:55 AM 27.0 °F 20.5 °F 19.0 °F 72% 30.06 in 10.0 mi North 5.8 mph - N/A   Overcast
1:15 AM 26.8 °F 17.7 °F 19.0 °F 73% 30.06 in 10.0 mi NNW 9.2 mph - N/A   Overcast
1:55 AM 26.6 °F 19.1 °F 19.2 °F 74% 30.05 in 7.0 mi NNW 6.9 mph - N/A Snow Light Snow
2:15 AM 26.6 °F 19.1 °F 19.0 °F 73% 30.05 in 10.0 mi NNW 6.9 mph - N/A Snow Light Snow
2:35 AM 26.6 °F 20.0 °F 19.0 °F 73% 30.05 in 10.0 mi NNW 5.8 mph - N/A Snow Light Snow
2:55 AM 26.6 °F 22.6 °F 19.2 °F 74% 30.05 in 10.0 mi NNW 3.5 mph - N/A Snow Light Snow
3:15 AM 26.6 °F 21.2 °F 19.2 °F 74% 30.04 in 10.0 mi North 4.6 mph - N/A   Overcast
3:35 AM 26.6 °F 21.2 °F 18.0 °F 70% 30.04 in 10.0 mi NW 4.6 mph - N/A Snow Light Snow
3:55 AM 26.6 °F - 18.5 °F 71% 30.04 in 10.0 mi Calm Calm - N/A   Overcast
4:15 AM 26.6 °F - 18.3 °F 71% 30.04 in 10.0 mi Calm Calm - N/A   Overcast
4:35 AM 26.6 °F 21.2 °F 18.5 °F 71% 30.04 in 10.0 mi WNW 4.6 mph - N/A   Overcast
4:55 AM 26.6 °F 22.6 °F 18.3 °F 71% 30.04 in 10.0 mi North 3.5 mph - N/A   Overcast
5:15 AM 26.6 °F 19.1 °F 18.3 °F 71% 30.05 in 10.0 mi NNW 6.9 mph - N/A   Overcast
5:35 AM 26.6 °F 22.6 °F 18.3 °F 71% 30.05 in 10.0 mi NNW 3.5 mph - N/A   Overcast
6:15 AM 26.6 °F 20.0 °F 16.9 °F 67% 30.05 in 10.0 mi WNW 5.8 mph - N/A   Overcast
6:35 AM 26.6 °F 21.2 °F 17.6 °F 69% 30.06 in 10.0 mi NNW 4.6 mph - N/A   Overcast
6:55 AM 26.8 °F 18.5 °F 17.2 °F 67% 30.06 in 10.0 mi NNW 8.1 mph - N/A   Overcast
7:15 AM 27.1 °F 21.8 °F 18.5 °F 70% 30.07 in 10.0 mi NW 4.6 mph - N/A   Overcast
7:35 AM 27.3 °F 22.0 °F 18.3 °F 69% 30.07 in 10.0 mi NNW 4.6 mph - N/A Snow Light Snow
7:55 AM 27.9 °F 24.0 °F 18.3 °F 67% 30.07 in 10.0 mi North 3.5 mph - N/A   Overcast
8:15 AM 27.7 °F 23.8 °F 18.1 °F 67% 30.07 in 10.0 mi North 3.5 mph - N/A   Overcast
8:35 AM 28.2 °F 19.5 °F 18.1 °F 66% 30.07 in 10.0 mi NW 9.2 mph - N/A Snow Light Snow
8:55 AM 29.1 °F 20.0 °F 17.6 °F 62% 30.07 in 10.0 mi WNW 10.4 mph - N/A   Overcast
9:15 AM 28.9 °F 21.1 °F 15.6 °F 58% 30.07 in 10.0 mi NW 8.1 mph - N/A   Overcast
9:35 AM 29.3 °F 21.5 °F 15.4 °F 56% 30.07 in 10.0 mi NNW 8.1 mph - N/A   Overcast
9:55 AM 30.2 °F 24.3 °F 14.7 °F 53% 30.06 in 10.0 mi North 5.8 mph - N/A   Overcast
10:15 AM 30.2 °F 24.3 °F 16.5 °F 57% 30.06 in 10.0 mi WNW 5.8 mph - N/A   Overcast
10:35 AM 30.0 °F 23.2 °F 18.1 °F 61% 30.07 in 10.0 mi NW 6.9 mph - N/A Snow Light Snow
10:55 AM 31.3 °F 23.9 °F 17.1 °F 56% 30.07 in 10.0 mi NW 8.1 mph - N/A   Overcast
11:15 AM 31.3 °F 23.3 °F 16.2 °F 54% 30.06 in 10.0 mi WNW 9.2 mph - N/A   Overcast
11:35 AM 30.9 °F 22.8 °F 17.2 °F 57% 30.06 in 10.0 mi NNW 9.2 mph - N/A   Overcast
11:55 AM 30.9 °F 23.5 °F 18.1 °F 59% 30.06 in 10.0 mi NW 8.1 mph - N/A   Overcast
12:15 PM 30.6 °F 23.1 °F 18.9 °F 62% 30.06 in 10.0 mi WNW 8.1 mph - N/A   Overcast
12:35 PM 30.9 °F 25.2 °F 18.3 °F 60% 30.05 in 10.0 mi NW 5.8 mph - N/A   Overcast
12:55 PM 30.6 °F 24.7 °F 17.1 °F 57% 30.04 in 10.0 mi NW 5.8 mph - N/A   Overcast
1:15 PM 31.6 °F 28.3 °F 18.0 °F 57% 30.04 in 10.0 mi WNW 3.5 mph - N/A   Overcast
1:35 PM 32.0 °F 24.2 °F 15.6 °F 51% 30.04 in 10.0 mi WNW 9.2 mph - N/A   Overcast
1:55 PM 32.0 °F 24.2 °F 17.1 °F 54% 30.04 in 10.0 mi West 9.2 mph - N/A   Overcast
2:15 PM 32.2 °F 25.0 °F 16.7 °F 53% 30.05 in 10.0 mi NNW 8.1 mph - N/A   Overcast
2:35 PM 32.2 °F 25.8 °F 16.7 °F 53% 30.05 in 10.0 mi WNW 6.9 mph - N/A   Overcast
2:55 PM 32.0 °F 25.6 °F 16.7 °F 53% 30.05 in 10.0 mi NNW 6.9 mph - N/A   Overcast
3:15 PM 32.0 °F 25.6 °F 16.2 °F 52% 30.05 in 10.0 mi NW 6.9 mph - N/A   Overcast
3:35 PM 32.0 °F 26.4 °F 16.2 °F 52% 30.05 in 10.0 mi NW 5.8 mph - N/A   Overcast
3:55 PM 32.0 °F 27.5 °F 16.9 °F 54% 30.05 in 10.0 mi West 4.6 mph - N/A   Overcast
4:15 PM 32.4 °F 27.9 °F 18.0 °F 55% 30.05 in 10.0 mi West 4.6 mph - N/A   Overcast
4:35 PM 32.0 °F 26.4 °F 17.6 °F 55% 30.05 in 10.0 mi WNW 5.8 mph - N/A   Overcast
4:55 PM 31.8 °F 27.3 °F 18.1 °F 57% 30.06 in 10.0 mi NW 4.6 mph - N/A   Overcast
5:15 PM 31.8 °F 28.5 °F 18.3 °F 57% 30.06 in 10.0 mi West 3.5 mph - N/A   Overcast
5:35 PM 31.5 °F 28.1 °F 17.8 °F 57% 30.07 in 10.0 mi West 3.5 mph - N/A   Overcast
5:55 PM 31.5 °F 28.1 °F 18.7 °F 59% 30.07 in 10.0 mi WNW 3.5 mph - N/A   Overcast
6:35 PM 30.9 °F - 18.9 °F 61% 30.08 in 10.0 mi Calm Calm - N/A   Overcast
6:55 PM 31.1 °F - 18.5 °F 60% 30.08 in 10.0 mi Calm Calm - N/A   Overcast
7:15 PM 30.7 °F - 18.1 °F 60% 30.08 in 10.0 mi Calm Calm - N/A   Overcast
7:35 PM 30.0 °F - 19.2 °F 64% 30.08 in 10.0 mi Calm Calm - N/A   Overcast
7:55 PM 29.7 °F - 19.8 °F 67% 30.09 in 10.0 mi Calm Calm - N/A   Overcast
8:15 PM 29.7 °F - 19.4 °F 66% 30.08 in 10.0 mi Calm Calm - N/A   Overcast
8:35 PM 29.1 °F 25.4 °F 19.9 °F 69% 30.08 in 10.0 mi WSW 3.5 mph - N/A   Overcast
8:55 PM 27.9 °F - 21.6 °F 77% 30.08 in 10.0 mi Calm Calm - N/A   Mostly Cloudy
9:15 PM 27.5 °F - 21.2 °F 77% 30.08 in 10.0 mi Calm Calm - N/A   Scattered Clouds
9:35 PM 27.3 °F 20.9 °F 19.9 °F 74% 30.09 in 10.0 mi West 5.8 mph - N/A   Scattered Clouds
9:55 PM 26.6 °F 21.2 °F 19.2 °F 74% 30.09 in 10.0 mi West 4.6 mph - N/A   Clear
10:15 PM 25.7 °F 21.5 °F 19.4 °F 77% 30.08 in 10.0 mi West 3.5 mph - N/A   Clear
10:35 PM 25.7 °F - 19.0 °F 76% 30.08 in 10.0 mi Calm Calm - N/A   Clear
10:55 PM 25.3 °F 21.1 °F 18.7 °F 76% 30.09 in 10.0 mi West 3.5 mph - N/A   Clear
11:15 PM 23.9 °F - 19.4 °F 83% 30.09 in 10.0 mi Calm Calm - N/A   Clear
11:35 PM 22.1 °F - 19.2 °F 89% 30.09 in 10.0 mi Calm Calm - N/A   Clear
11:55 PM 23.0 °F - 19.2 °F 85% 30.10 in 10.0 mi Calm Calm - N/A   Clear